Regional Weather Roundup
Issued by NWS State College, PA

Home | Current Version | Previous Version | Text Only | Print | Product List | Glossary On
Versions: 1 2 3 4 5 6 7 8 9 10 11 12 13 14 15 16 17 18 19 20 21 22 23 24 25 26 27 28 29 30 31 32 33 34 35 36 37 38 39 40 41 42 43 44 45 46 47 48 49 50
000
ASUS41 KCTP 162310
RWRCTP

REGIONAL WEATHER ROUNDUP
NATIONAL WEATHER SERVICE STATE COLLEGE PA
600 PM EST THU NOV 16 2017

Note: "fair" indicates few or no clouds below 12,000 feet with no
significant weather and/or obstructions to visibility.

* = STATION THAT DOES NOT REPORT PRECIPITATION /E.G. RAIN...SNOW...ETC/
    THUNDER OR FOG.

PAZ002>004-007>009-013>016-020>023-029>032-170000-
WESTERN PENNSYLVANIA

CITY           SKY/WX    TMP DP  RH WIND       PRES   REMARKS
ERIE           CLOUDY    41  32  70 NW18G28   30.07R
MEADVILLE      CLOUDY    35  34  96 W8        30.08R
FRANKLIN*      CLOUDY    34  32  92 W10       30.07R
NEW CASTLE     MIX PCPN  37  35  92 W9        30.13R
BEAVER COUNTY  NOT AVBL
BUTLER*        CLOUDY    36  32  87 W10       30.12R
PITTSBURGH INT CLOUDY    39  31  72 W13       30.12R
PITTSBURGH     CLOUDY    39  28  64 W12G23    30.11R
INDIANA*       CLOUDY    37  34  87 W10G18    30.11R
LATROBE        CLOUDY    37  32  81 W14G25    30.12R
WASHINGTON CO* CLOUDY    38  30  73 W10       30.17R
$$

PAZ004>006-010>012-017>019-024>028-033>037-041-042-045-046-049>053-170000-
CENTRAL PENNSYLVANIA

CITY           SKY/WX    TMP DP  RH WIND       PRES   REMARKS
BRADFORD       LGT SNOW  34  33  96 W12       29.96R FOG
DUBOIS         LGT SNOW  34  31  88 W15G24    30.00R FOG
CLEARFIELD     CLOUDY    37  33  85 W10G20    30.01R
JOHNSTOWN      CLOUDY    33  30  88 W13       30.03R
ALTOONA        CLOUDY    40  29  64 W21G32    30.02R
STATE COLLEGE  CLOUDY    39  32  75 W22       30.01R
WILLIAMSPORT   CLOUDY    44  34  67 W12       29.94R
SELINSGROVE    CLOUDY    44  32  62 W12G20    29.99R
FT INDIANTOWN  CLOUDY    46  29  53 SW10G18   29.97R
CAPITAL CITY   PTCLDY    47  28  47 NW17G28   30.00R
HARRISBURG     CLOUDY    47  32  56 W14       29.99R
YORK           CLOUDY    45  30  55 W9G22     30.01R
$$

PAZ038>040-043-044-047-048-054-055-060>062-067>071-170000-
EASTERN PENNSYLVANIA

CITY           SKY/WX    TMP DP  RH WIND       PRES   REMARKS
SCRANTON       CLOUDY    44  33  65 W18G25    29.88R
MOUNT POCONO   LGT RAIN  37  33  85 W17G25    29.83R
ALLENTOWN      MOCLDY    47  31  53 W14G33    29.91R
QUAKERTOWN*    CLEAR     45  32  61 NW5       29.93R
READING        CLOUDY    47  33  58 W12       29.95R
LANCASTER      MOCLDY    46  32  58 NW22G30   29.97R
COATESVILLE    MOCLDY    46  32  57 NW14G23   29.97R
POTTSTOWN      MOCLDY    46  30  53 W13G23    29.95R
BLUE BELL      MOCLDY    46  32  57 W8G17     29.93R
DOYLESTOWN     MOCLDY    47  32  56 W12G22    29.90R
WILLOW GROVE   NOT AVBL
NORTH PHILA    CLOUDY    52  31  44 NW15G25   29.93R
PHILADELPHIA   MOCLDY    52  29  41 W22G28    29.94R
$$




USA.gov is the U.S. government's official web portal to all federal, state and local government web resources and services.